Starlink 33579

operational
NORAD ID: 62764 Int'l Des: 2025-015 Owner: SPXS Country: US Constellation: starlink
LEOCIRCULAR

About Starlink 33579

Description loading...

Live Position

Loading 3D Globe...

Upcoming Passes

Altitude History

Altitude vs Time

uPlot chart will show altitude changes over time

Two-Line Element Set

1 62764U 25015G 25352.29132379 .00016146 00000-0 55609-3 0 9997
2 62764 53.1612 340.1941 0001399 88.7625 271.3536 15.30199900 52028
Epoch: Dec 18, 2025 • Age: 12 hours

Current Status

Altitude 476.7 km
Velocity 7.63 km/s
Sub-Earth Point 32.94°N, 123.03°E
Launch Date Jan 21, 2025
Age 0.9 years
Type internet

Technical Details

Classification Payload
Mass 575.00 kg
Dry Mass 530.00 kg
Total Mass 575.00 kg
Length 0.30 m
Diameter 4.10 m
Span 29.00 m
Shape Box + pan
Manufacturer SPXS
Bus Type Starlink V2MO
Phase Status In Orbit
Owner/State SPXS/US

Large Constellations

Loading constellations...